Regional Weather Roundup
Issued by NWS

Home | Current Version | Previous Version | Graphics & Text | Print | Product List | Glossary On
Versions: 1 2 3 4 5 6 7 8 9 10 11 12 13 14 15 16 17 18 19 20 21 22 23 24 25 26 27 28 29 30 31 32 33 34 35 36 37 38 39 40 41 42 43 44 45 46 47 48 49 50
000
ASUS43 KMPX 241101
RWRMN
WEATHER ROUNDUP FOR MINNESOTA
NATIONAL WEATHER SERVICE TWIN CITIES/CHANHASSEN MN
500 AM CST SAT FEB 24 2018


NOTE: "FAIR" INDICATES FEW OR NO CLOUDS BELOW 12,000 FEET WITH NO
SIGNIFICANT WEATHER AND/OR OBSTRUCTIONS TO VISIBILITY. N/A MEANS
CURRENT SKY AND/OR WEATHER CONDITIONS ARE NOT AVAILABLE.

MNZ060>063-068>070-241200-
   Twin Cities Metro

CITY           SKY/WX    TMP DP  RH WIND       PRES   REMARKS
TWIN CITIES    FAIR       8   4  83 CALM      30.20F FOG
ST PAUL        FOG       11   8  88 S5        30.23S VSB 1/4 WCI   3
CRYSTAL        FAIR       4   0  83 CALM      30.19F FOG
BLAINE         FAIR       3   0  85 CALM      30.19F
LAKEVILLE      FAIR      -6  -8  92 CALM      30.19F
EDEN PRAIRIE   FOG        5   1  83 CALM      30.18F VSB 1
SOUTH ST PAUL  FAIR       4   0  83 CALM      30.20F
LAKE ELMO      FOG      N/A N/A N/A CALM      30.21F VSB<1/4
$$
MNZ001>005-007-008-013>017-022>024-027-028-241200-
   Northwest Minnesota

CITY           SKY/WX    TMP DP  RH WIND       PRES   REMARKS
BEMIDJI        FAIR      -8 -11  85 CALM      30.10F
HALLOCK        FAIR       0  -4  85 S12       30.04F WCI -18
ROSEAU         FAIR       0  -6  78 S8        30.06F WCI -15
WARROAD        FAIR       1  -2  85 S3        30.07F
THIEF RVR FALL FAIR      -3  -6  87 S7        30.09F WCI -16
CROOKSTON      FAIR      -4  -8  84 S8        30.10F WCI -19
FOSSTON        FAIR      -2  -6  84 SE3       30.09F
DETROIT LAKES  FAIR       0  -4  85 CALM      30.11S
MOORHEAD       FAIR      -2  -8  78 S5        30.13F WCI -12
PARK RAPIDS    FAIR      -9 -15  75 CALM      30.11S
MAHNOMEN       FAIR       0  -3  85 E6        30.09F WCI -11
$$
MNZ006-009>011-018-025>026-241200-
   North Central Minnesota

CITY           SKY/WX    TMP DP  RH WIND       PRES   REMARKS
BAUDETTE       FAIR      -2  -5  87 SE6       30.08F WCI -14
FLAG ISLAND    FAIR      -6  -9  84 SE8       30.06F WCI -21
INTL FALLS     FAIR      -7 -10  87 CALM      30.13F
WASKISH        FAIR       0  -4  85 CALM      30.11F
LONGVILLE      FAIR     -11 -17  77 CALM      30.13S
GRAND RAPIDS   FAIR      -7 -10  87 CALM      30.15F
CRANE LAKE     FAIR      -9 -13  84 CALM      30.18F
ORR            FAIR      -2  -8  78 CALM      30.11F
COOK             N/A     -9 -13  84 CALM      30.14F
WALKER         FAIR      -5  -8  86 CALM      30.12S
$$
MNZ012-019>021-037-241200-
   Northeast Minnesota

CITY           SKY/WX    TMP DP  RH WIND       PRES   REMARKS
DULUTH         FAIR       9   4  80 N6        30.14F WCI  -1
ELY            FAIR      -8  -9  92 CALM      30.15F
HIBBING        FAIR     -10 -13  86 CALM      30.13F
DULUTH HARBOR  FAIR      12   9  85 CALM      30.22S
TWO HARBORS    FAIR      12   5  73 CALM      30.14F
GRAND MARAIS     N/A     10   3  73 CALM      30.19
G MARAIS ARPRT FAIR       7   0  72 NW7       30.09F WCI  -5
$$
MNZ029>031-032-039>041-046>048-054>057-064-241200-
   West Central Minnesota

CITY           SKY/WX    TMP DP  RH WIND       PRES   REMARKS
FERGUS FALLS   FAIR       0  -4  85 E6        30.13F WCI -12
WHEATON        FOG       -6  -9  84 CALM      30.16F VSB 3/4
MORRIS         CLOUDY   -11 -17  77 CALM      30.14S HAZE
ALEXANDRIA     FAIR       0  -3  87 SE6       30.11F WCI -12
ELBOW LAKE     FAIR      -2  -5  86 SE5       30.12F WCI -12
WADENA         FAIR      -9 -15  77 CALM      30.11F
GLENWOOD       FAIR      -4  -8  84 SE3       30.14R
APPLETON       CLOUDY    -6 -11  77 CALM      30.16F HAZE
MADISON        HAZE      -4  -9  77 CALM      30.14F VSB 1/2
WILLMAR        FAIR      -9 -15  77 CALM      30.18F
$$
MNZ033>034-036-042>043-049>051-058-059-241200-
   Central Minnesota

CITY           SKY/WX    TMP DP  RH WIND       PRES   REMARKS
ST CLOUD       FAIR      -8  -9  95 S3        30.18S FOG
SAUK CENTRE    FAIR     -13 -18  81 CALM      30.15S
PAYNESVILLE    FAIR      -2  -4  90 CALM      30.17F
AITKIN         FAIR     -11 -17  77 CALM      30.15F
PINE RIVER     FAIR     -11 -15  84 CALM      30.17S
BRAINERD       FAIR      -7 -13  75 CALM      30.14F
STAPLES        FAIR     -11 -17  77 CALM      30.12F
LONG PRAIRIE   FAIR      -8 -11  84 CALM      30.13F
LITTLE FALLS   FAIR      -8 -15  71 CALM      30.16S
LITCHFIELD     FAIR      -2  -6  84 CALM      30.18S
BUFFALO        FAIR      -3  -7  83 CALM      30.20F
MAPLE LAKE     FAIR      -7 -10  85 CALM      30.19F
HUTCHINSON     FOG       -7 -11  84 CALM      30.17F VSB 1
$$
MNZ037-044-045-052-053-241200-
   East Central Minnesota

CITY           SKY/WX    TMP DP  RH WIND       PRES   REMARKS
PRINCETON      FAIR      -6 -11  77 CALM      30.18S
CAMBRIDGE        N/A      0  -8  71 CALM      30.20S
RUSH CITY      FAIR      -3  -7  84 CALM      30.20S
MOOSE LAKE     FAIR       0  -6  78 CALM      30.16F
HINCKLEY       FAIR      -6  -8  92 E3        30.17F
CLOQUET        FAIR       7   3  85 CALM      30.15S
MCGREGOR       FAIR      -6  -8  92 CALM      30.16F
$$
MNZ071>073-080-081-089-090-097-098-241200-
   Southwest Minnesota

CITY           SKY/WX    TMP DP  RH WIND       PRES   REMARKS
MONTEVIDEO     FOG       -8 -11  84 CALM      30.15F VSB 1/2
GRANITE FALLS  FOG       -3  -6  83 CALM      30.18F VSB 3/4
CANBY          CLOUDY    -5  -9  84 CALM      30.13F
MARSHALL       CLOUDY     0  -3  87 CALM      30.13F
REDWOOD FALLS  CLOUDY    -2  -4  91 NE3       30.14F FOG
OLIVIA         FOG        0  -4  85 CALM      30.15F VSB 1/4
PIPESTONE      FLURRIES   7   3  85 CALM      30.07S
WORTHINGTON    FOG        9   7  92 E5        30.10F VSB 1/2 WCI   1
JACKSON        FOG        7   3  85 CALM      30.11F VSB 1/4
TRACY          CLOUDY     8   6  92 CALM      30.11F
SLAYTON        FOG       10   8  92 CALM      30.09F VSB 3/4
$$
MNZ065>067-074>077-082>085-091>093-241200-
   South Central Minnesota

CITY           SKY/WX    TMP DP  RH WIND       PRES   REMARKS
MANKATO        FOG        2  -1  88 CALM      30.17F VSB 1/4
NEW ULM        PTCLDY     0  -4  85 CALM      30.15F FOG
ST JAMES       FOG        1   0  92 CALM      30.16F VSB 1/4
FAIRMONT       FOG        9   6  88 E5        30.14F VSB 1/4 WCI   1
GLENCOE        FAIR      -4  -8  84 CALM      30.17F
FARIBAULT      FOG        0  -2  92 CALM      30.17F VSB 1/4
OWATONNA       FAIR       3   1  92 CALM      30.16F
WASECA         LGT SNOW   3   1  92 E3        30.17F VSB 1
ALBERT LEA     CLOUDY    10   7  85 CALM      30.13F FOG
$$
MNZ078>079-086>088-094>096-241200-
   Southeast Minnesota

CITY           SKY/WX    TMP DP  RH WIND       PRES   REMARKS
ROCHESTER      FAIR      11   9  92 NE6       30.15F FOG     WCI   1
RED WING       SNOW      10   5  79 CALM      30.21F VSB 1/2
STANTON        FAIR      -4  -8  81 CALM      30.18F
DODGE CENTER   FOG        3   0  85 CALM      30.15F VSB<1/4
WINONA         FAIR      10   9  92 CALM      30.21F FOG
AUSTIN         MOCLDY     9   7  92 NE3       30.13F
PRESTON        FAIR      12  10  90 CALM      30.15F FOG
$$
ABBREVIATIONS USED IN REMARKS
   TC - TEMPERATURES IN CELSIUS
  WCI - WIND CHILL INDEX
   HX - HEAT INDEX
  VSB - VISIBILITY
$$




USA.gov is the U.S. government's official web portal to all federal, state and local government web resources and services.